{"data":{"norad_id":64291,"epoch":"2026-09-20T16:57:45.715968Z","epoch_age_seconds":119720,"freshness":"FRESH","line1":"1 64291U 25123A   26263.70677912  .00018197  00000+0  63595-3 0  9999","line2":"2 64291  70.0013  60.2295 0003849 269.9339  90.1395 15.29576985 72119","mean_motion":15.29576985,"eccentricity":0.0003849,"inclination_deg":70.0013,"raan_deg":60.2295,"arg_perigee_deg":269.9339,"mean_anomaly_deg":90.1395,"bstar":0.00063595,"rev_number":7211,"period_min":94.143675939266,"perigee_km":474.43733983698,"apogee_km":479.71448273609,"semimajor_km":6855.2129112865,"source":"CELESTRAK","updated_at":"2026-09-21T09:00:35.287426Z"}}